Language: 


Des rapports , des résumés tant et plus, au choix de chacun....


Données Historiques de Météogheer
Journalier Rapport pour Novembre 27, 2017 Unitée:  Impériale    Métrique   Les deux
Suivant Jour »
Journalier Hebdomadaire Mensuel Annuel Sur mesure
  Max: Min: Moyenne:
Température: 49.3 °F 32.9 °F 44.8 °F
Point de rosée: 50 °F 33.8 °F 45.1 °F
Humidité: 98% 97% 98%
Vent: 19.5mph 0mph 7.3mph
Rafales: 23.5mph - -
Vent- - WSW
Pression: 30.2 in 0 in -
Pluie: 1.29 in    
Historical Graphs
 
 
Données tabulaires pour Novembre 27, 2017
Heure Température Point de rosée Pression Vent Vent Rafales Humidité Pluie Taux (Horaire) Conditions
00:02 33.1 °F 33.8 °F 30.2 in Calm   3.6 mph 97% 0 in
00:07 33.1 °F 33.8 °F 30.2 in Calm     97% 0 in
00:12 32.9 °F 33.8 °F 30.2 in Calm     97% 0 in
00:17 33.1 °F 33.8 °F 30.2 in Calm     98% 0 in
00:23 33.3 °F 33.8 °F 30.2 in Calm   0.9 mph 98% 0 in
00:27 33.4 °F 33.8 °F 30.2 in West 2.5 mph 2.9 mph 98% 0 in
00:32 33.4 °F 33.8 °F 30.2 in Calm   3.1 mph 98% 0 in
00:37 33.4 °F 33.8 °F 30.2 in Calm   3.1 mph 98% 0 in
00:43 33.3 °F 33.8 °F 30.2 in Calm     98% 0 in
00:53 32.9 °F 33.8 °F 30.2 in Calm     97% 0 in
00:58 33.1 °F 33.8 °F 30.2 in Calm     97% 0 in
01:03 33.1 °F 33.8 °F 30.2 in Calm     98% 0 in
01:08 33.4 °F 33.8 °F 30.2 in Calm     98% 0 in
01:13 33.8 °F 33.8 °F 30.2 in Calm     98% 0 in
01:18 34 °F 33.8 °F 30.2 in Calm   1.6 mph 98% 0 in
01:23 34.3 °F 33.8 °F 30.2 in Calm   2.9 mph 98% 0 in
01:28 34.7 °F 35.6 °F 30.2 in WSW 3.8 mph 4 mph 98% 0 in
01:33 35.2 °F 35.6 °F 30.2 in Calm   4 mph 98% 0 in
01:38 35.4 °F 35.6 °F 30.2 in Calm   3.4 mph 98% 0 in
01:43 35.6 °F 35.6 °F 30.2 in Calm   4.9 mph 98% 0 in
01:48 35.8 °F 35.6 °F 30.2 in SSW 4.9 mph 4.9 mph 98% 0 in
01:53 36.1 °F 37.4 °F 30.2 in SW 2 mph 4.9 mph 98% 0 in
01:58 36.3 °F 37.4 °F 30.2 in SSW 4.3 mph 5.6 mph 98% 0 in
02:03 36.5 °F 37.4 °F 30.2 in Calm   5.6 mph 98% 0 in
02:08 36.9 °F 37.4 °F 30.2 in SW 4.9 mph 6 mph 98% 0 in
02:13 37 °F 37.4 °F 30.2 in SW 5.4 mph 6 mph 98% 0 in
02:18 37.4 °F 37.4 °F 30.2 in SSW 3.6 mph 7.4 mph 98% 0 in
02:24 37.6 °F 37.4 °F 30.2 in SW 4.7 mph 8.5 mph 98% 0 in
02:29 37.9 °F 37.4 °F 30.2 in WSW 5.4 mph 8.5 mph 98% 0 in
02:34 38.1 °F 37.4 °F 30.2 in SW 4.9 mph 7.6 mph 98% 0 in
02:39 38.5 °F 39.2 °F 30.2 in SW 2.7 mph 7.6 mph 98% 0 in
02:44 38.5 °F 39.2 °F 30.2 in SSW 5.8 mph 7.8 mph 98% 0 in
02:49 38.7 °F 39.2 °F 30.2 in SSW 6 mph 8.1 mph 98% 0 in
02:51 38.7 °F 39.2 °F 30.2 in WSW 4.9 mph 8.1 mph 98% 0 in
02:56 38.8 °F 39.2 °F 30.2 in SW 5.4 mph 8.1 mph 98% 0 in
03:02 39 °F 39.2 °F 0 in SW 6.7 mph 7.8 mph 98% 0 in
03:07 39.4 °F 39.2 °F 30.2 in SW 7.2 mph 7.8 mph 98% 0 in
03:12 39.4 °F 39.2 °F 30.2 in WSW 4.3 mph 8.1 mph 98% 0 in
03:17 39.4 °F 39.2 °F 30.2 in WSW 4.3 mph 8.1 mph 98% 0 in
03:22 39.4 °F 39.2 °F 30.2 in WSW 5.6 mph 7.4 mph 98% 0 in
03:27 39.6 °F 39.2 °F 30.2 in SW 4.9 mph 7.4 mph 98% 0 in
03:32 39.6 °F 39.2 °F 30.2 in SW 5.8 mph 7.6 mph 98% 0 in
03:37 39.7 °F 39.2 °F 30.2 in Calm   7.6 mph 98% 0 in
03:42 39.7 °F 39.2 °F 30.2 in SW 6.5 mph 7.8 mph 98% 0 in
03:47 39.9 °F 39.2 °F 30.2 in SSW 4.3 mph 7.8 mph 98% 0 in
03:52 40.1 °F 41 °F 30.2 in SSW 6.5 mph 8.7 mph 98% 0 in
03:57 40.3 °F 41 °F 30.2 in SW 5.6 mph 8.7 mph 98% 0 in
04:02 40.3 °F 41 °F 30.2 in South 5.6 mph 8.5 mph 98% 0 in
04:07 40.5 °F 41 °F 30.2 in SW 5.6 mph 8.5 mph 98% 0 in
04:12 40.6 °F 41 °F 30.2 in SW 4.3 mph 8.5 mph 98% 0 in
04:17 40.6 °F 41 °F 30.2 in SSW 7.8 mph 7.8 mph 98% 0 in
04:22 40.8 °F 41 °F 30.2 in SSW 4 mph 7.8 mph 98% 0 in
04:25 41 °F 41 °F 30.2 in SSW 6.3 mph 8.9 mph 98% 0 in
04:30 41.2 °F 41 °F 30.1 in SSW 6.5 mph 8.9 mph 98% 0 in
04:35 41.4 °F 41 °F 30.1 in SW 6 mph 9.8 mph 98% 0 in
04:40 41.5 °F 42.8 °F 30.1 in SW 6.5 mph 9.8 mph 98% 0 in
04:45 41.5 °F 42.8 °F 30.1 in SSW 6.5 mph 8.7 mph 98% 0 in
04:50 41.7 °F 42.8 °F 30.1 in SSW 7.4 mph 9.4 mph 98% 0 in
04:55 41.7 °F 42.8 °F 30.1 in SSW 6 mph 9.4 mph 98% 0 in
05:00 41.9 °F 42.8 °F 30.1 in WSW 7.4 mph 8.7 mph 98% 0 in
05:05 41.9 °F 42.8 °F 30.1 in SW 7.6 mph 8.7 mph 98% 0 in
05:10 42.1 °F 42.8 °F 30.1 in SSW 7.4 mph 8.1 mph 98% 0 in
05:20 42.3 °F 42.8 °F 30.1 in SSW 5.6 mph 10.1 mph 98% 0 in
05:25 42.4 °F 42.8 °F 30.1 in SSW 8.1 mph 10.1 mph 98% 0 in
05:30 42.6 °F 42.8 °F 30.1 in SSW 7.4 mph 10.1 mph 98% 0 in
05:35 42.8 °F 42.8 °F 30.1 in SW 6 mph 8.7 mph 98% 0 in
05:40 43 °F 42.8 °F 30.1 in SSW 5.6 mph 8.7 mph 98% 0 in
05:42 43 °F 42.8 °F 30.1 in SSW 5.6 mph 11 mph 98% 0 in
05:47 43.2 °F 42.8 °F 30.1 in SSW 14.1 mph 14.1 mph 98% 0 in
05:53 43.3 °F 42.8 °F 30.1 in SW 11 mph 14.1 mph 98% 0 in
05:58 43.5 °F 42.8 °F 30.1 in SSW 6.3 mph 12.3 mph 98% 0 in
06:03 43.5 °F 42.8 °F 30.1 in SW 8.7 mph 12.3 mph 98% 0 in
06:08 43.7 °F 44.6 °F 30.1 in SW 8.1 mph 10.5 mph 98% 0 in
06:13 43.7 °F 44.6 °F 30.1 in SW 8.7 mph 11.2 mph 98% 0 in
06:18 43.9 °F 44.6 °F 30.1 in SSW 8.5 mph 11.2 mph 98% 0.01 in
06:23 44.1 °F 44.6 °F 30.1 in WSW 8.1 mph 10.3 mph 98% 0.01 in
06:28 44.1 °F 44.6 °F 30.1 in SW 7.2 mph 10.1 mph 98% 0.01 in
06:33 44.1 °F 44.6 °F 30.1 in WSW 6.3 mph 10.3 mph 98% 0.01 in
06:38 44.2 °F 44.6 °F 30.1 in SSW 8.7 mph 10.3 mph 98% 0.01 in
06:43 44.4 °F 44.6 °F 30.1 in SW 11.9 mph 13 mph 98% 0.01 in
06:48 44.4 °F 44.6 °F 30.1 in SW 6.7 mph 13 mph 98% 0.02 in
06:53 44.6 °F 44.6 °F 30.1 in SW 6.3 mph 11 mph 98% 0.02 in
06:58 44.8 °F 44.6 °F 30.1 in SW 7.8 mph 11 mph 98% 0.03 in
06:59 44.8 °F 44.6 °F 30.1 in WSW 8.5 mph 11 mph 98% 0.03 in
07:04 44.8 °F 44.6 °F 30.1 in SSW 7.6 mph 10.3 mph 98% 0.05 in
07:09 45 °F 44.6 °F 30.1 in SW 8.5 mph 14.5 mph 98% 0.05 in
07:14 45 °F 44.6 °F 30 in SW 11.2 mph 14.5 mph 98% 0.05 in
07:19 45.1 °F 44.6 °F 30 in SW 8.5 mph 12.3 mph 98% 0.05 in
07:24 45.1 °F 44.6 °F 30 in SW 6.3 mph 12.3 mph 98% 0.06 in
07:29 45.3 °F 44.6 °F 30 in SSW 12.5 mph 14.5 mph 98% 0.06 in
07:34 45.3 °F 44.6 °F 30 in WSW 11 mph 14.5 mph 98% 0.07 in
07:40 45.3 °F 44.6 °F 30 in SW 12.1 mph 14.3 mph 98% 0.07 in
07:45 45.3 °F 44.6 °F 30 in SW 9.6 mph 14.3 mph 98% 0.07 in
07:50 45.5 °F 46.4 °F 30 in SSW 10.1 mph 14.3 mph 98% 0.07 in
07:55 45.5 °F 46.4 °F 30 in SSW 12.3 mph 14.5 mph 98% 0.07 in
08:00 45.5 °F 46.4 °F 30 in SW 8.7 mph 14.5 mph 98% 0.07 in
08:05 45.5 °F 46.4 °F 30 in WSW 8.5 mph 14.3 mph 98% 0.07 in
08:10 45.5 °F 46.4 °F 30 in SSW 6.3 mph 14.3 mph 98% 0.09 in
08:15 45.5 °F 46.4 °F 30 in SSW 7.8 mph 12.8 mph 98% 0.07 in
08:20 45.5 °F 46.4 °F 30 in SW 9.8 mph 12.8 mph 98% 0.09 in
08:25 45.5 °F 46.4 °F 30 in SW 10.1 mph 15.7 mph 98% 0.09 in
08:35 45.7 °F 46.4 °F 30 in SW 8.5 mph 13.2 mph 98% 0.1 in
08:40 45.7 °F 46.4 °F 30 in West 13 mph 15.4 mph 98% 0.1 in
08:45 45.9 °F 46.4 °F 30 in SSW 10.5 mph 17.2 mph 98% 0.12 in
08:50 45.9 °F 46.4 °F 30 in WSW 13 mph 17.2 mph 98% 0.12 in
08:56 46 °F 46.4 °F 30 in SW 10.1 mph 17.2 mph 98% 0.12 in
09:01 46 °F 46.4 °F 30 in WSW 8.5 mph 17 mph 98% 0.12 in
09:06 46 °F 46.4 °F 30 in SSW 7.8 mph 15.2 mph 98% 0.12 in
09:11 46 °F 46.4 °F 30 in WSW 8.1 mph 14.8 mph 98% 0.12 in
09:16 46 °F 46.4 °F 30 in SSW 11 mph 14.8 mph 98% 0.12 in
09:21 46 °F 46.4 °F 30 in SSW 6.5 mph 14.8 mph 98% 0.13 in
09:26 46 °F 46.4 °F 30 in SW 10.3 mph 14.5 mph 98% 0.13 in
09:31 46 °F 46.4 °F 30 in SW 15.2 mph 15.2 mph 98% 0.12 in
09:36 46.2 °F 46.4 °F 30 in WSW 9.6 mph 15.2 mph 98% 0.12 in
09:41 46.2 °F 46.4 °F 29.9 in SSW 10.5 mph 13.9 mph 98% 0.11 in
09:46 46.2 °F 46.4 °F 29.9 in SW 10.1 mph 17 mph 98% 0.11 in
09:52 46.4 °F 46.4 °F 29.9 in SW 10.5 mph 17 mph 98% 0.11 in
09:57 46.4 °F 46.4 °F 30 in SW 10.3 mph 13.9 mph 98% 0.1 in
10:02 46.4 °F 46.4 °F 30 in SW 10.7 mph 17 mph 98% 0.1 in
10:07 46.4 °F 46.4 °F 30 in WSW 10.7 mph 17 mph 98% 0.1 in
10:12 46.6 °F 46.4 °F 30 in WSW 12.5 mph 17.7 mph 98% 0.09 in
10:17 46.6 °F 46.4 °F 30 in WSW 11 mph 17.7 mph 98% 0.09 in
10:22 46.6 °F 46.4 °F 30 in SW 10.3 mph 16.3 mph 98% 0.1 in
10:27 46.6 °F 46.4 °F 30 in SW 12.3 mph 18.6 mph 98% 0.09 in
10:32 46.8 °F 46.4 °F 30 in WSW 8.1 mph 19 mph 98% 0.1 in
10:37 46.8 °F 46.4 °F 30 in SW 12.5 mph 19 mph 98% 0.1 in
10:42 46.8 °F 46.4 °F 29.9 in SW 11.9 mph 19.5 mph 98% 0.1 in
10:47 46.9 °F 48.2 °F 29.9 in SW 10.3 mph 19.5 mph 98% 0.11 in
10:52 46.9 °F 48.2 °F 29.9 in WSW 14.8 mph 18.1 mph 98% 0.1 in
10:57 47.1 °F 48.2 °F 29.9 in SW 8.7 mph 16.1 mph 98% 0.11 in
11:02 47.1 °F 48.2 °F 29.9 in SW 9.8 mph 17.7 mph 98% 0.11 in
11:07 47.1 °F 48.2 °F 29.9 in SSW 12.1 mph 19.2 mph 98% 0.11 in
11:12 47.1 °F 48.2 °F 29.9 in SW 12.1 mph 19.2 mph 98% 0.11 in
11:17 47.1 °F 48.2 °F 29.9 in SW 9.8 mph 19.5 mph 98% 0.11 in
11:22 47.3 °F 48.2 °F 29.9 in WSW 12.5 mph 19.5 mph 98% 0.11 in
11:27 47.3 °F 48.2 °F 29.9 in WSW 12.1 mph 15.4 mph 98% 0.13 in
11:32 47.3 °F 48.2 °F 29.9 in SW 15.4 mph 19 mph 98% 0.13 in
11:37 47.5 °F 48.2 °F 29.9 in SW 13.2 mph 19 mph 98% 0.13 in
11:42 47.5 °F 48.2 °F 29.9 in SW 10.1 mph 17.7 mph 98% 0.13 in
11:47 47.5 °F 48.2 °F 29.9 in SW 12.5 mph 17.7 mph 98% 0.12 in
11:52 47.5 °F 48.2 °F 29.9 in SSW 17 mph 19.7 mph 98% 0.13 in
11:57 47.5 °F 48.2 °F 29.9 in WSW 19.5 mph 19.7 mph 98% 0.14 in
12:02 47.7 °F 48.2 °F 29.9 in WSW 13.2 mph 19.7 mph 98% 0.15 in
12:07 47.7 °F 48.2 °F 29.9 in WSW 15.9 mph 19.7 mph 98% 0.15 in
12:12 47.7 °F 48.2 °F 29.9 in WSW 13 mph 18.8 mph 98% 0.16 in
12:17 47.7 °F 48.2 °F 29.9 in SW 14.5 mph 19.5 mph 98% 0.17 in
12:22 47.8 °F 48.2 °F 29.9 in WSW 12.3 mph 22.4 mph 98% 0.17 in
12:28 47.8 °F 48.2 °F 29.9 in WSW 14.1 mph 22.4 mph 98% 0.17 in
12:33 47.8 °F 48.2 °F 29.9 in SW 11.9 mph 21.9 mph 98% 0.18 in
12:38 47.8 °F 48.2 °F 29.9 in WSW 10.5 mph 17.2 mph 98% 0.22 in
12:43 48 °F 48.2 °F 29.9 in WSW 10.7 mph 15.7 mph 98% 0.23 in
12:48 48 °F 48.2 °F 29.9 in West 10.1 mph 19.9 mph 98% 0.24 in
12:53 48 °F 48.2 °F 29.9 in SW 12.3 mph 19.9 mph 98% 0.25 in
12:58 48.2 °F 48.2 °F 29.9 in SW 12.8 mph 22.1 mph 98% 0.27 in
13:03 48.2 °F 48.2 °F 29.9 in WSW 14.5 mph 22.1 mph 98% 0.28 in
13:08 48.2 °F 48.2 °F 29.9 in WSW 9.4 mph 21 mph 98% 0.29 in
13:13 48.2 °F 48.2 °F 29.9 in WSW 11.4 mph 17.2 mph 98% 0.31 in
13:18 48.2 °F 48.2 °F 29.9 in West 7.6 mph 17.2 mph 98% 0.43 in
13:23 48.2 °F 48.2 °F 29.9 in NW 5.6 mph 14.5 mph 98% 0.44 in
13:28 48.4 °F 48.2 °F 29.9 in WSW 13.2 mph 13.2 mph 98% 0.46 in
13:33 48.4 °F 48.2 °F 29.9 in WSW 13 mph 17.7 mph 98% 0.46 in
13:38 48.4 °F 48.2 °F 29.9 in WSW 12.8 mph 23.5 mph 98% 0.45 in
13:43 48.6 °F 48.2 °F 29.9 in WSW 10.7 mph 23.5 mph 98% 0.44 in
13:48 48.6 °F 48.2 °F 29.9 in WSW 7.4 mph 17.7 mph 98% 0.42 in
13:53 48.6 °F 48.2 °F 29.9 in WSW 8.1 mph 13.9 mph 98% 0.4 in
13:58 48.6 °F 48.2 °F 29.9 in WSW 12.5 mph 12.8 mph 98% 0.37 in
14:03 48.7 °F 48.2 °F 29.9 in SW 9.8 mph 17 mph 98% 0.35 in
14:08 48.7 °F 48.2 °F 29.9 in SW 14.8 mph 17 mph 98% 0.33 in
14:13 48.7 °F 48.2 °F 29.9 in WSW 13.2 mph 15.4 mph 98% 0.29 in
14:18 48.9 °F 48.2 °F 29.9 in SSW 9.8 mph 14.8 mph 98% 0.18 in
14:23 48.9 °F 48.2 °F 29.9 in SW 9.4 mph 12.1 mph 98% 0.15 in
14:28 48.9 °F 48.2 °F 29.9 in SSW 9.6 mph 14.3 mph 98% 0.1 in
14:33 49.1 °F 50 °F 29.9 in WSW 9.8 mph 14.3 mph 98% 0.07 in
14:38 49.1 °F 50 °F 29.9 in SW 13 mph 15.4 mph 98% 0.05 in
14:43 49.1 °F 50 °F 29.9 in SW 9.6 mph 15.4 mph 98% 0.05 in
14:44 49.1 °F 50 °F 29.9 in SW 7.4 mph 15.4 mph 98% 0.05 in
14:50 49.3 °F 50 °F 29.9 in WSW 7.8 mph 10.7 mph 98% 0.05 in
14:55 49.3 °F 50 °F 29.9 in WSW 7.8 mph 10.7 mph 98% 0.03 in
15:00 49.3 °F 50 °F 29.9 in WSW 9.8 mph 10.3 mph 98% 0.05 in
15:05 49.3 °F 50 °F 29.9 in WSW 7.6 mph 10.3 mph 98% 0.05 in
15:10 49.3 °F 50 °F 29.9 in WSW 6.9 mph 10.3 mph 98% 0.03 in
15:15 49.3 °F 50 °F 29.9 in WSW 11.9 mph 11.9 mph 98% 0.03 in
15:20 49.3 °F 50 °F 29.9 in West 8.1 mph 11.9 mph 98% 0.02 in
15:25 49.3 °F 50 °F 29.9 in WSW 7.8 mph 11.4 mph 98% 0.02 in
15:30 49.1 °F 50 °F 29.9 in WSW 9.2 mph 12.8 mph 98% 0.02 in
15:35 49.1 °F 50 °F 29.9 in WSW 10.1 mph 13.2 mph 98% 0.02 in
15:40 49.1 °F 50 °F 29.9 in WSW 8.7 mph 13.2 mph 98% 0.02 in
15:46 48.9 °F 48.2 °F 29.9 in WSW 10.3 mph 12.8 mph 98% 0.01 in
15:59 48.7 °F 48.2 °F 29.8 in WSW 10.3 mph 13.2 mph 98% 0 in
16:04 48.6 °F 48.2 °F 29.8 in WSW 7.4 mph 12.5 mph 98% 0 in
16:10 48.6 °F 48.2 °F 29.8 in WSW 9.8 mph 12.3 mph 98% 0 in
16:15 48.4 °F 48.2 °F 29.8 in WSW 7.4 mph 12.5 mph 98% 0 in
16:16 48.4 °F 48.2 °F 29.8 in WSW 8.7 mph 12.5 mph 98% 0 in
16:21 48.2 °F 48.2 °F 29.8 in WSW 6.3 mph 10.5 mph 98% 0 in
16:26 48.2 °F 48.2 °F 29.8 in SW 7.4 mph 10.5 mph 98% 0 in
16:31 48.2 °F 48.2 °F 29.8 in WSW 7.6 mph 12.3 mph 98% 0 in
16:36 48 °F 48.2 °F 29.8 in WSW 11 mph 12.3 mph 98% 0 in
16:41 48 °F 48.2 °F 29.8 in WSW 8.1 mph 11 mph 98% 0 in
16:46 47.8 °F 48.2 °F 29.8 in WSW 6 mph 12.1 mph 98% 0 in
16:51 47.7 °F 48.2 °F 29.8 in WSW 6.5 mph 12.1 mph 98% 0 in
16:56 47.5 °F 48.2 °F 29.8 in WSW 6.3 mph 8.7 mph 98% 0 in
17:01 47.5 °F 48.2 °F 29.8 in WSW 7.2 mph 8.7 mph 98% 0 in
17:06 47.3 °F 48.2 °F 29.8 in WSW 10.1 mph 10.1 mph 98% 0 in
17:11 47.3 °F 48.2 °F 29.8 in WSW 6.3 mph 10.1 mph 98% 0 in
17:16 47.3 °F 48.2 °F 29.8 in WSW 7.2 mph 10.5 mph 98% 0 in
17:21 47.3 °F 48.2 °F 29.8 in WSW 8.1 mph 10.7 mph 98% 0 in
17:26 47.3 °F 48.2 °F 29.8 in WSW 7.4 mph 12.3 mph 98% 0 in
17:31 47.3 °F 48.2 °F 29.8 in SW 7.4 mph 12.3 mph 98% 0 in
17:36 47.3 °F 48.2 °F 29.8 in WSW 8.1 mph 10.7 mph 98% 0 in
17:41 47.3 °F 48.2 °F 29.8 in WSW 6.5 mph 8.7 mph 98% 0 in
17:46 47.3 °F 48.2 °F 29.8 in WSW 8.7 mph 10.3 mph 98% 0 in
17:52 47.5 °F 48.2 °F 29.8 in SW 8.9 mph 12.3 mph 98% 0 in
17:57 47.5 °F 48.2 °F 29.8 in WSW 8.5 mph 12.3 mph 98% 0 in
18:02 47.5 °F 48.2 °F 29.8 in WSW 7.8 mph 12.1 mph 98% 0 in
18:07 47.5 °F 48.2 °F 29.8 in WSW 8.5 mph 11.2 mph 98% 0 in
18:12 47.7 °F 48.2 °F 29.8 in WSW 7.6 mph 11.2 mph 98% 0 in
18:17 47.7 °F 48.2 °F 29.8 in WSW 8.9 mph 12.5 mph 98% 0 in
18:22 47.7 °F 48.2 °F 29.8 in WSW 8.7 mph 12.8 mph 98% 0 in
18:27 47.7 °F 48.2 °F 29.8 in WSW 8.1 mph 13.2 mph 98% 0 in
18:32 47.7 °F 48.2 °F 29.8 in WSW 8.5 mph 13.2 mph 98% 0 in
18:37 47.7 °F 48.2 °F 29.8 in WSW 7.8 mph 13 mph 98% 0 in
18:42 47.7 °F 48.2 °F 29.8 in WSW 6.5 mph 12.1 mph 98% 0 in
18:47 47.7 °F 48.2 °F 29.8 in WSW 6.5 mph 10.5 mph 98% 0 in
18:52 47.8 °F 48.2 °F 29.8 in WSW 7.2 mph 11 mph 98% 0 in
18:53 47.8 °F 48.2 °F 29.8 in SW 7.4 mph 11 mph 98% 0 in
18:58 47.8 °F 48.2 °F 29.8 in SW 6 mph 11 mph 98% 0 in
19:03 47.8 °F 48.2 °F 29.8 in WSW 7.8 mph 11 mph 98% 0 in
19:08 47.8 °F 48.2 °F 29.8 in WSW 7.4 mph 11 mph 98% 0 in
19:13 47.8 °F 48.2 °F 29.8 in WSW 8.5 mph 10.3 mph 98% 0 in
19:18 47.8 °F 48.2 °F 29.8 in SW 4.9 mph 9.6 mph 98% 0 in
19:23 47.8 °F 48.2 °F 29.8 in SW 5.4 mph 7.8 mph 98% 0 in
19:28 47.8 °F 48.2 °F 29.8 in WSW 6.3 mph 8.9 mph 98% 0 in
19:33 47.8 °F 48.2 °F 29.8 in West 2 mph 8.9 mph 98% 0 in
19:38 47.7 °F 48.2 °F 29.8 in WSW 7.4 mph 10.5 mph 98% 0 in
19:43 47.7 °F 48.2 °F 29.8 in WSW 6.5 mph 10.5 mph 98% 0 in
19:45 47.7 °F 48.2 °F 29.8 in WSW 8.5 mph 10.5 mph 98% 0 in
19:50 47.5 °F 48.2 °F 29.8 in WSW 7.8 mph 10.1 mph 98% 0 in
19:55 47.5 °F 48.2 °F 29.8 in WSW 8.1 mph 10.1 mph 98% 0 in
20:00 47.5 °F 48.2 °F 29.8 in WSW 6.5 mph 8.7 mph 98% 0 in
20:05 47.5 °F 48.2 °F 29.8 in WSW 6.3 mph 9.6 mph 98% 0 in
20:10 47.3 °F 48.2 °F 29.8 in WSW 6.3 mph 9.6 mph 98% 0 in
20:15 47.3 °F 48.2 °F 29.8 in Calm   8.5 mph 98% 0 in
20:20 47.3 °F 48.2 °F 29.8 in WSW 6 mph 6.7 mph 98% 0 in
20:25 47.1 °F 48.2 °F 29.8 in WSW 5.6 mph 6.5 mph 98% 0 in
20:30 47.1 °F 48.2 °F 29.8 in West 5.8 mph 7.2 mph 98% 0 in
20:35 47.1 °F 48.2 °F 29.8 in WSW 4.9 mph 7.2 mph 98% 0 in
20:40 47.3 °F 48.2 °F 29.8 in West 3.8 mph 7.2 mph 98% 0 in
20:45 47.3 °F 48.2 °F 29.8 in West 6.3 mph 7.4 mph 98% 0 in
20:50 47.3 °F 48.2 °F 29.8 in West 4 mph 7.4 mph 98% 0 in
20:55 47.1 °F 48.2 °F 29.8 in Calm   5.8 mph 98% 0 in
21:00 47.1 °F 48.2 °F 29.8 in West 4.7 mph 5.6 mph 98% 0 in
21:05 46.9 °F 48.2 °F 29.8 in Calm   4.9 mph 98% 0 in
21:10 46.9 °F 48.2 °F 29.8 in West 3.1 mph 4.9 mph 98% 0 in
21:15 46.9 °F 48.2 °F 29.8 in West 3.6 mph 6.5 mph 98% 0 in
21:20 46.9 °F 48.2 °F 29.8 in SSW 5.4 mph 7.2 mph 98% 0 in
21:25 46.9 °F 48.2 °F 29.8 in WSW 3.6 mph 7.2 mph 98% 0.01 in
21:30 46.8 °F 46.4 °F 29.8 in West 6 mph 10.1 mph 98% 0.01 in
21:35 46.8 °F 46.4 °F 29.8 in West 1.6 mph 10.1 mph 98% 0.01 in
21:40 46.8 °F 46.4 °F 29.8 in Calm   6.3 mph 98% 0.01 in
21:45 46.6 °F 46.4 °F 29.8 in West 4.7 mph 6 mph 98% 0.01 in
21:50 46.6 °F 46.4 °F 29.8 in West 2.7 mph 4.7 mph 98% 0.01 in
21:55 46.4 °F 46.4 °F 29.8 in West 3.4 mph 4.7 mph 98% 0.01 in
22:01 46.2 °F 46.4 °F 29.8 in West 5.6 mph 5.8 mph 98% 0.01 in
22:06 46.2 °F 46.4 °F 29.8 in West 6 mph 8.7 mph 98% 0.01 in
22:11 46.2 °F 46.4 °F 29.8 in WSW 5.8 mph 8.7 mph 98% 0.01 in
22:12 46.2 °F 46.4 °F 29.8 in West 5.8 mph 8.7 mph 98% 0.01 in
22:17 46 °F 46.4 °F 29.8 in West 4.5 mph 8.1 mph 98% 0.01 in
22:22 46 °F 46.4 °F 29.8 in Calm   7.2 mph 98% 0.01 in
22:27 45.9 °F 46.4 °F 29.8 in WSW 5.4 mph 6.3 mph 98% 0 in
22:32 45.9 °F 46.4 °F 29.8 in West 5.4 mph 7.4 mph 98% 0 in
22:37 45.9 °F 46.4 °F 29.8 in Calm   7.4 mph 98% 0 in
22:39 45.7 °F 46.4 °F 29.8 in Calm   6.3 mph 98% 0 in
22:44 45.7 °F 46.4 °F 29.8 in Calm   5.6 mph 98% 0 in
22:49 45.5 °F 46.4 °F 29.8 in WSW 3.4 mph 5.6 mph 98% 0 in
22:54 45.5 °F 46.4 °F 29.8 in West 2.5 mph 4.3 mph 98% 0 in
22:59 45.3 °F 44.6 °F 29.8 in WSW 3.6 mph 5.4 mph 98% 0 in
23:04 45.1 °F 44.6 °F 29.8 in WSW 4.9 mph 5.6 mph 98% 0 in
23:09 45.1 °F 44.6 °F 29.8 in WSW 3.4 mph 5.6 mph 98% 0 in
23:15 45 °F 44.6 °F 29.8 in Calm   6 mph 98% 0 in
23:19 44.8 °F 44.6 °F 29.8 in WSW 4.9 mph 6.3 mph 98% 0 in
23:25 44.8 °F 44.6 °F 29.8 in WSW 6 mph 6.5 mph 98% 0 in
23:30 44.8 °F 44.6 °F 29.8 in Calm   6.5 mph 98% 0.01 in
23:35 44.8 °F 44.6 °F 29.8 in WSW 2.5 mph 6.5 mph 98% 0.01 in
23:39 44.8 °F 44.6 °F 29.8 in WSW 6 mph 6.5 mph 98% 0.01 in
23:42 44.6 °F 44.6 °F 29.8 in West 6.3 mph 6.5 mph 98% 0.01 in
23:47 44.6 °F 44.6 °F 29.8 in WSW 4 mph 6.5 mph 98% 0.01 in
23:52 44.6 °F 44.6 °F 29.8 in West 6 mph 7.2 mph 98% 0.01 in
23:57 44.6 °F 44.6 °F 29.7 in West 5.6 mph 7.6 mph 98% 0.01 in
Données Historique de Météo Turbie

Mise a jour : 22/05/2018 19:56:12
Généré par Cumulus 1.9.4 (1099)